Regional Weather Roundup
Issued by NWS Wakefield, VA

Home | Current Version | Previous Version | Text Only | Print | Product List | Glossary On
Versions: 1 2 3 4 5 6 7 8 9 10 11 12 13 14 15 16 17 18 19 20 21 22 23 24 25 26 27
000
ASUS41 KAKQ 300015
RWRAKQ

REGIONAL WEATHER ROUNDUP
NATIONAL WEATHER SERVICE WAKEFIELD VA
700 PM EST MON NOV 29 2021

Note: "fair" indicates few or no clouds below 12,000 feet with no
significant weather and/or obstructions to visibility. * = Denotes
station may not report precipitation (e.g., rain,snow,etc.),
thunder or fog.

VAZ042-051-052>054-056-300100-
NORTHERN VIRGINIA

CITY           SKY/WX    TMP DP  RH WIND       PRES   REMARKS
WASH NATIONAL  PTCLDY    40  21  46 N7        30.07R
DULLES         PTCLDY    33  23  66 W3        30.05R
FORT BELVOIR   CLEAR     34  23  65 CALM      30.06R
QUANTICO       CLEAR     39  26  59 W6        30.09R
FREDERICKSBRG* CLEAR     37  22  54 NW3       30.06R
STAFFORD*      CLEAR     37  19  49 CALM      30.11R
WARRENTON      PTCLDY    27  21  79 CALM      30.06R
CULPEPER*      CLEAR     32  21  64 CALM      30.08R
MANASSAS*      PTCLDY    30  23  75 S3        30.07R
LEESBURG*      CLEAR     34  28  80 CALM      30.06R
WINCHESTER     MOCLDY    34  19  55 W3        30.04R
FRONT ROYAL*   FAIR      36  21  55 W5        30.05R
LURAY*         FAIR      32  21  64 S3        30.05R
$$

VAZ048-049-060>072-079>083-300100-
CENTRAL AND SOUTH CENTRAL VIRGINIA

CITY           SKY/WX    TMP DP  RH WIND       PRES   REMARKS
RICHMOND       CLEAR     42  20  41 W5        30.06R
CHESTERFIELD*  NOT AVBL
PETERSBURG*    CLEAR     29  22  74 CALM      30.07R
HANOVER        CLEAR     36  25  64 CALM      30.07R
TAPPAHANNOCK*  CLEAR     33  25  72 SW3       30.06R
QUINTON*       FAIR      33  23  66 CALM      30.06R
CHARLOTTSVILLE CLEAR     41  16  36 NW3       30.05R
GORDONSVILLE*  FAIR      32  21  63 CALM      30.06R
ORANGE*        CLEAR     34  19  55 NW5       30.06S
LOUISA*        CLEAR     29  18  64 CALM      30.11R
BUMPASS*       FAIR      34  19  53 CALM      30.06S
FARMVILLE*     CLEAR     33  20  59 CALM      30.06R
CREWE*         FAIR      31  18  57 CALM      30.06R
FORT PICKETT*  FAIR      34  21  60 CALM      30.07R
CHASE CITY*    FAIR      33  21  62 CALM      30.07S
CLARKSVILLE*   FAIR      32  23  69 CALM      30.08R
SOUTH HILL*    CLEAR     31  20  65 CALM      30.13R
LAWRENCEVILLE* FAIR      33  24  68 CALM      30.07S
EMPORIA*       CLEAR     31  23  72 CALM      30.09R
$$

VAZ088>098-300100-
SOUTHEAST VIRGINIA

CITY           SKY/WX    TMP DP  RH WIND       PRES   REMARKS
NORFOLK        CLEAR     43  25  49 N6        30.05R
VIRGINIA BEACH PTCLDY    44  24  45 N10       30.05R
NORFOLK NAVAL  CLEAR     44  25  47 N6        30.07R
WEST POINT*      N/A     30  25  83 CALM      30.07R
SALUDA*        FAIR      35  26  69 CALM      30.06R
NEWPORT NEWS   CLEAR     32  25  75 CALM      30.06R
LANGLEY AFB    CLEAR     40  25  54 CALM      30.05R
FORT EUSTIS    CLEAR     38  22  52 CALM      30.05R
WILLIAMSBURG*  CLEAR     37  27  65 CALM      30.07R
HR EXEC AP*    NOT AVBL
FRANKLIN*      CLEAR    N/A N/A N/A CALM      30.08R
US460-WAKEFLD  CLEAR     35  26  69 CALM      30.07R
$$

VAZ020-022-025-037-045-300100-
WEST CENTRAL AND SOUTHWEST VIRGINIA

CITY           SKY/WX    TMP DP  RH WIND       PRES   REMARKS
STAUNTON*      CLEAR     27  18  68 W5        30.06S
WAYNESBORO*    FAIR      32  15  48 CALM      30.04S
HOT SPRINGS VA NOT AVBL
LYNCHBURG      CLEAR     35  20  54 CALM      30.06R
DANVILLE       CLEAR     34  16  47 W5        30.09R
SOUTH BOSTON*  FAIR      35  17  46 MISG      30.09R
MARTINSVILLE   PTCLDY    29  19  66 CALM      30.10S
ROANOKE        CLEAR     36  17  46 NW12      30.08F
BLACKSBURG     PTCLDY    30  17  58 CALM      30.07F
DUBLIN*        PTCLDY    32  18  58 CALM      30.06F
MARION*        PTCLDY   N/A N/A N/A SW3       30.06F
HILLSVILLE*    PTCLDY    32  16  51 W5        30.02S
RICHLANDS*     FAIR      31  15  52 W3        30.04F
WISE*          CLEAR     30  18  59 SW5       30.05F
ABINGDON*      CLEAR     32  17  54 W3        30.07F
$$

MDZ021>025-VAZ099-100-300100-
SOUTHERN MARYLAND AND THE DELMARVA PENINSULA

CITY           SKY/WX    TMP DP  RH WIND       PRES   REMARKS
PATUXENT RIVER PTCLDY    43  25  49 NW10      30.05R
BAY BRIDGE APT NOT AVBL
LEONARDTOWN    CLEAR     37  27  65 CALM      30.06R
DOVER          CLEAR     36  21  54 W6        30.01S
GEORGETOWN     CLEAR     33  24  69 CALM      30.02S
EASTON         CLEAR     37  27  65 CALM      30.08R
CAMBRIDGE      CLEAR     41  27  56 NW10G17   30.04R
SALISBURY      CLEAR     37  24  59 CALM      30.03R
TANGIER        FAIR      45  29  54 NW20G25   30.04R
OCEAN CITY     CLEAR     30  25  81 CALM      30.03R
WALLOPS ISLAND CLEAR     35  25  66 W3        30.04R
ACCOMACK*      MOCLDY    42  38  86 NW9       30.04R
$$

NCZ012>017-030>032-300100-
NORTH CENTRAL AND EASTERN NORTH CAROLINA

CITY           SKY/WX    TMP DP  RH WIND       PRES   REMARKS
ROANOKE RAPIDS FAIR      34  28  80 CALM      30.09R
RALEIGH        PTCLDY    37  21  52 CALM      30.10R
ELIZABETH CITY CLEAR     36  24  62 SW5       30.07R
AHOSKIE*       CLEAR     31  23  72 CALM      30.09R
EDENTON*       CLEAR     37  31  76 CALM      30.09R
CURRITUCK*     CLEAR     36  24  62 CALM      30.06R
KILL DEVIL HLS CLEAR     41  28  58 NW3       30.05R
MANTEO         CLEAR     42  29  58 CALM      30.08R
CAPE HATTERAS  CLEAR     45  26  47 VRB3      30.07R
TARBORO*       FAIR      31  26  80 CALM      30.10R
GOLDSBORO      PTCLDY    39  22  50 CALM      30.09R
WASHINGTON     NOT AVBL
GREENVILLE     CLEAR     34  28  80 CALM      30.12R
NEW BERN       CLEAR     36  30  79 CALM      30.11R
WILMINGTON     CLEAR     41  25  53 CALM      30.12R
$$

VAZ048-300100-
ELSEWHERE

CITY           SKY/WX    TMP DP  RH WIND       PRES   REMARKS
HARRISBURG PA  MOCLDY    39  25  57 W7        30.01R
BALTIMORE      MOCLDY    41  24  51 W9        30.04R
ANNAPOLIS      MOCLDY    42  26  53 W5        30.05R
ANDREWS AFB    CLEAR     37  21  52 NW6       30.03R
PHILADELPHIA   CLEAR     40  21  46 NW5       30.01R
HENDERSON NC   CLEAR     35  17  46 CALM      30.09R
GREENSBORO     PTCLDY    37  16  42 CALM      30.08S
ROCKY MOUNT    CLEAR     33  24  69 CALM      30.10R
$$

VAZ100-300100-
MARINE

STATION/POSITION TIME  TEMP    WIND        PRES    WAVE   SWELL
                       AIR SEA DIR/SP/G            HT/PER HT/PER
                 (UTC) (F)     (DEG/KT/KT) (MB)    (FT/S) (FT/S)
CAPE MAY NJ      2330   42 48  330/ 14/ 22 1016.2R
LEWES DE         2330   42 47  320/ 17/ 21 1016.4R
15NM E FENWICK I 2350   44 55  320/ 19/ 25 1016.2R   5/ 5   2/14
OCEAN-CITY-INLET 2330   41 50  340/  6/  7 1017.8R
44089 WALLOPS IS 2356      53                N/A     3/14   2/14
WACHAPREAGUE VA  2330   43 45  330/  2/  5 1017.1R
THOMAS POINT MD  0000   42 47  280/ 11/ 13 1018.4R
GOOSES REEF MD   2354   41 50  320/ 17/ 25 1018.4R
COVE POINT MD    2330   44     280/ 16/ 24 1017.3R
SOLOMONS ISLAND  2330   43 50  310/  6/  7 1017.3R
BISHOPS HEAD MD  2330   40 43  340/  7/ 10 1017.1R
PINEY POINT MD   2330          360/  9/ 10   N/A
POTOMAC MD       2354   41 50  340/ 14/ 17 1018.0R
CAMBRIDGE MD     2330   44 45  310/ 13/ 18 1016.8R
LEWISETTA VA     2330   42 46  300/  7/  8 1017.4R
RAPPAHANNOCK LGT 2330          320/ 18/ 21 1017.8R
STINGRAY PT      2354   42 49  330/ 16/ 17 1018.7R
YORK RVR RNG VA  2330   45     360/ 11/ 12   N/A
YORKTOWN VA      2330   44 50  350/  7/  8 1017.3R
DOMINION TERM VA 2330   44      40/  2/  4 1017.8R
KIPTOPEKE VA     2330      50   10/  8/ 11   N/A
CHES BAY BRIDGE  2330   46     350/ 16/ 19 1016.2R
CAPE HENRY VA    2330   46     340/ 19/ 23 1017.5R
WILLOUBY STN VA  2330   45     350/  8/ 12 1018.0R
S CRANEY ISL VA  2330   45      10/ 12/ 13 1017.4R
CAPE HENRY BUOY  2356      54                N/A     4/ 6   2/14
64NM E OF VA BCH 2350          330/ 21/ 27 1016.0R   9/ 7   2/14
DUCK PIER NC     2330   46 55  330/ 13/ 16 1017.1R
44100 DUCK FRF   2326      56                N/A     6/ 7   2/13
44056 DUCK FRF   2356      56                N/A     5/13   2/13
OREGON INLET NC  2330   44 58  330/  9/ 12 1017.4R
HATTERAS NC      2330   47 53  350/ 12/ 14 1017.8R
DIAMOND SHLS NC  2350   49 71  340/ 16/ 19 1017.6R   4/ 8   3/ 8
CAPE LOOKOUT NC  0000   47     340/  7/  9 1019.6R
$$



USA.gov is the U.S. government's official web portal to all federal, state and local government web resources and services.